Погода в Торриш Ведраш

Португалия     39°05′40″N   9°15′54″W
темп.,
°C
ветер,
м/с
пор.,
м/с
влажн.,
%
обл.,
%
осадки,
мм/ч
давл.,
гПа
погр.,
м
10 мая, пн
пн1001:00+11з37760 0.1 1013135
04:00+11зюз338358 0.1 101245
07:00+11зюз47853 0.8 1012143
10:00+14зюз796984 0.6 10121354
13:00+15з796722 2.1 10131335
16:00+15зсз8116719 1.3 10141414
19:00+13сз710704 1.7 10161305
22:00+11сз49704 0.1 1018214
11 мая, вт
вт1101:00+11зсз49725 0.3 1020214
04:00+10сз48719 0.1 1021150
07:00+10зсз337811 0.3 102251
10:00+15з555432 0.1 10231615
13:00+16з555112 0.1 10241612
16:00+16зюз66540 0.0 10221400
19:00+15зюз57600 0.0 10221067
22:00+13юз59755 0.0 1023376
12 мая, ср
ср1201:00+14юз6107788 0.0 1022642
04:00+14зюз71292100 0.6 1020770
07:00+14сз59874 1.4 1020523
10:00+16сз68705 0.0 10211070
13:00+18сз68616 0.0 10221210
16:00+17сз67634 0.0 10221240
19:00+16зсз56722 0.1 1022944
22:00+12зсз37915 0.1 1023161
13 мая, чт
чт1301:00+12сз379515 0.1 1022177
04:00+11сз22945 0.0 102120
07:00+11зсз22905 0.0 102132
10:00+16з687348 0.0 1020825
13:00+18з8117180 0.0 10191072
16:00+17з8128643 0.4 1018870
19:00+16зсз7119066 0.8 1017773
22:00+13сз51091100 0.3 1018483
14 мая, пт
пт1401:00+12сз49923 0.3 1018359
04:00+11ссз41092100 0.1 1018286
07:00+11ссз399159 0.1 1019277
10:00+14ссз5776100 0.0 1021914
13:00+17ссз6759100 0.0 10201082
16:00+18сз685716 0.0 1020960
19:00+15ссз686573 0.0 1020723
22:00+11ссз36866 0.0 1022142